Regional Weather Roundup
Issued by NWS

Home | Current Version | Previous Version | Graphics & Text | Print | Product List | Glossary On
Versions: 1 2 3 4 5 6 7 8 9 10 11 12 13 14 15 16 17 18 19 20 21 22 23 24 25 26 27 28 29 30 31 32 33 34 35 36 37 38 39 40 41 42 43 44 45 46 47 48 49 50
000
ASUS45 KABQ 262301
RWRNM
NEW MEXICO REGIONAL WEATHER ROUNDUP
NATIONAL WEATHER SERVICE ALBUQUERQUE NM
500 PM MDT SUN MAR 26 2017

NOTE: "FAIR" MEANS FEW OR NO CLOUDS BELOW 12,000 FEET AGL WITH NO
       SIGNIFICANT WEATHER OR OBSTRUCTIONS TO VISION.

      THIS PRODUCT IS RELEASED AS TWO VERSIONS.  ONE VERSION NEAR
      THE TOP OF THE HOUR CONTAINING PRELIMINARY DATA FROM ALBUQUERQUE
      AND OTHER STATIONS.  A FINAL VERSION WITH ADDITIONAL DATA IS
      ISSUED ABOUT 10 MINUTES AFTER THE HOUR.

NMZ501-503-504-510>518-270000-
NORTHWEST PLATEAU/NORTHCENTRAL MOUNTAINS

CITY           SKY/WX    TMP DP  RH WIND       PRES   REMARKS
FARMINGTON     FAIR      58  25  28 W18G24    29.94S
LOS ALAMOS     FAIR      55  23  29 W10G17    29.97R
SANTA FE       PTSUNNY   62  24  23 VRB6      29.91R
TAOS             N/A     54  30  40 NW5       29.93R
ANGEL FIRE     PTSUNNY   45  33  63 NW6       29.97S

$$
NMZ402-403-502-505>509-270000-
WESTCENTRAL MOUNTAINS/SOUTHWEST MOUNTAINS

CITY           SKY/WX    TMP DP  RH WIND       PRES   REMARKS
GALLUP         FAIR      57  27  31 W10       30.00S
GRANTS         FAIR      59  19  21 W15G22    30.00S
SILVER CITY    FAIR      65  18  16 W20G30    29.99R

$$
NMZ407-409-411-412-270000-
SOUTHERN DESERTS

CITY           SKY/WX    TMP DP  RH WIND       PRES   REMARKS
DEMING         FAIR      71  20  14 W16G31    29.94S
LAS CRUCES     FAIR      71  17  12 W16G26    29.93S
HOLLOMAN AFB   FAIR      72   8   8 W8        29.91F
ALAMOGORDO     FAIR      72   9   8 NW9       29.90F
T OR C         FAIR      73   8   8 W6        29.87F

$$
NMZ519>523-270000-
CENTRAL VALLEYS/CENTRAL HIGHLANDS

CITY           SKY/WX    TMP DP  RH WIND       PRES   REMARKS
ALBUQUERQUE    FAIR      65  23  20 W12G20    29.92S
DOUBLE EAGLE   MOSUNNY   63  25  23 NW7G16    29.94S
MORIARTY ARPT  CLOUDY    65  24  21 W16G25    29.94S
CLINES CORNERS FAIR      58  19  22 W24       29.95S
BELEN          FAIR      67  20  16 NW14G20   29.91F
SOCORRO        FAIR      71  16  12 N9G22     29.89S

$$
NMZ524>526-539-540-270000-
SOUTHCENTRAL MOUNTAINS

CITY           SKY/WX    TMP DP  RH WIND       PRES   REMARKS
RUIDOSO        NOT AVBL

$$
NMZ527>531-270000-
NORTHEAST HIGHLANDS/NORTHEAST PLAINS

CITY           SKY/WX    TMP DP  RH WIND       PRES   REMARKS
LAS VEGAS      FAIR      61  23  23 N12       29.89R
RATON          FAIR      54  33  45 N21G29    29.87S
CLAYTON        FAIR      61  36  39 N22G31    29.84R

$$
NMZ532>537-270000-
EASTCENTRAL PLAINS

CITY           SKY/WX    TMP DP  RH WIND       PRES   REMARKS
TUCUMCARI      FAIR      71  31  22 N21G31    29.78R
CANNON AFB     PTSUNNY   70  27  20 NW14      29.79S
CLOVIS AIRPORT PTSUNNY   70  30  23 N20       29.80R

$$
NMZ028-029-538-270000-
SOUTHEAST PLAINS

CITY           SKY/WX    TMP DP  RH WIND       PRES   REMARKS
ROSWELL        FAIR      78  14   9 NW12G22   29.82
ARTESIA        FAIR      77  14   9 W12G17    29.81R
CARLSBAD       FAIR      79   7   6 W20G29    29.79F
HOBBS          SUNNY     77  10   8 W17G26    29.81F


$$



USA.gov is the U.S. government's official web portal to all federal, state and local government web resources and services.